Location: Krakow
(50.0830°N, 19.9170°E)
Time: 09:56:31
(UTC+01:00)

Transit 2A - Pass Details

Date: 16 February 2023
Orbit: 591 x 964 km, 66.7° (Epoch: 21 March)

Event Time Altitude Azimuth Distance (km) Brightness Sun altitude
Rises 16:49:04 0° 283° (WNW) 3,242 10.3 0.8°
Reaches altitude 10° 16:52:12 10° 302° (WNW) 2,392 9.2 0.3°
Maximum altitude 16:55:55 18° 345° (NNW) 1,974 8.1 -0.3°
Drops below altitude 10° 16:59:52 10° 27° (NNE) 2,560 8.3 -0.9°
Sets 17:03:22 0° 45° (NE) 3,563 8.9 -1.4°
